Regional Weather Roundup
Issued by NWS State College, PA

Home | Current Version | Previous Version | Text Only | Print | Product List | Glossary On
Versions: 1 2 3 4 5 6 7 8 9 10 11 12 13 14 15 16 17 18 19 20 21 22 23 24 25 26 27 28 29 30 31 32 33 34 35 36 37 38 39 40 41 42 43 44 45 46 47 48 49 50
000
ASUS41 KCTP 301310
RWRCTP

REGIONAL WEATHER ROUNDUP
NATIONAL WEATHER SERVICE STATE COLLEGE PA
900 AM EDT MON MAY 30 2016

Note: "fair" indicates few or no clouds below 12,000 feet with no
significant weather and/or obstructions to visibility.

* = STATION THAT DOES NOT REPORT PRECIPITATION /E.G. RAIN...SNOW...ETC/
    THUNDER OR FOG.

PAZ002>004-007>009-013>016-020>023-029>032-301400-
WESTERN PENNSYLVANIA

CITY           SKY/WX    TMP DP  RH WIND       PRES   REMARKS
ERIE           SUNNY     74  61  63 VRB5      30.00R
MEADVILLE      SUNNY     68  62  81 VRB5      30.03S
FRANKLIN*      PTSUNNY   66  61  82 W6        30.05S
NEW CASTLE     FAIR      69  64  84 SW5       30.04R
BEAVER COUNTY  NOT AVBL
BUTLER*        SUNNY     68  63  83 W5        30.05S
PITTSBURGH INT PTSUNNY   70  62  76 NW6       30.02F
PITTSBURGH     SUNNY     69  62  78 VRB3      30.03S
INDIANA*       SUNNY     68  63  83 SW8       30.08R
LATROBE        MOSUNNY   68  64  88 SW10      30.05S
WASHINGTON CO* SUNNY     70  63  78 CALM      30.05S
$$

PAZ004>006-010>012-017>019-024>028-033>037-041-042-045-046-049>053-301400-
CENTRAL PENNSYLVANIA

CITY           SKY/WX    TMP DP  RH WIND       PRES   REMARKS
BRADFORD       CLOUDY    64  59  83 W8        30.05R
DUBOIS         SUNNY     67  62  84 W8        30.04R
CLEARFIELD     CLOUDY    62  60  93 VRB3      30.05S FOG
JOHNSTOWN      SUNNY     66  57  72 SW7       30.07S
ALTOONA        SUNNY     67  58  72 SW5       30.05S
STATE COLLEGE  SUNNY     70  61  73 S6        30.03S
WILLIAMSPORT   MOSUNNY   72  62  71 E5        30.01S
SELINSGROVE    CLOUDY    68  63  84 S5        30.04S
FT INDIANTOWN  LGT RAIN  68  66  94 S2        30.04S
CAPITAL CITY   CLOUDY    70  63  78 W3        30.04R
HARRISBURG     CLOUDY    69  62  78 NW3       30.03S
YORK           CLOUDY    68  62  81 CALM      30.04S
$$

PAZ038>040-043-044-047-048-054-055-060>062-067>071-301400-
EASTERN PENNSYLVANIA

CITY           SKY/WX    TMP DP  RH WIND       PRES   REMARKS
SCRANTON       CLOUDY    67  62  84 W5        30.03F
MOUNT POCONO   NOT AVBL
ALLENTOWN      CLOUDY    70  64  83 CALM      30.03R
QUAKERTOWN*    CLOUDY    68  66  94 CALM      30.05R
READING        CLOUDY    70  65  84 SW5       30.03S
LANCASTER      CLOUDY    69  64  84 CALM      30.04S
COATESVILLE    MOSUNNY   70  64  83 NW8       30.06S
POTTSTOWN      CLOUDY    70  67  90 VRB3      30.05R
BLUE BELL      CLOUDY    68  66  94 CALM      30.03R
DOYLESTOWN     CLOUDY    70  68  93 W3        30.03R
WILLOW GROVE   NOT AVBL
NORTH PHILA    CLOUDY    72  70  93 CALM      30.04R
PHILADELPHIA   CLOUDY    71  67  87 NW8       30.03R
$$




USA.gov is the U.S. government's official web portal to all federal, state and local government web resources and services.